Location: Sungai Anya
(2.6167°N, 114.0500°E)
Time: 18:56:58
(UTC+00:00)

Cosmos 1703 - Pass Details

Date: 19 October 2021
Orbit: 521 x 538 km, 82.5° (Epoch: 08 December)

Event Time Altitude Azimuth Distance (km) Brightness Sun altitude
Rises 11:22:47 0° 348° (NNW) 2,648 6.8 -18.7°
Reaches altitude 10° 11:24:58 10° 342° (NNW) 1,759 6.0 -19.2°
Maximum altitude 11:28:43 50° 266° (W) 669 4.1 -20.1°
Drops below altitude 10° 11:32:28 10° 190° (S) 1,758 6.1 -21.1°
Sets 11:34:38 0° 185° (S) 2,646 7.0 -21.6°
